Location: Ottawa
(45.4167°N, 75.7000°W)
Time: 06:46:49
(UTC-05:00)

XW-2B - Visible Passes

Search period start: 20 November 2017 00:00
Search period end: 30 November 2017 00:00
Orbit: 510 x 532 km, 97.5° (Epoch: 20 November)

Date Brightness Start Highest point End Pass type
(mag) Time Alt. Az. Time Alt. Az. Time Alt. Az.
20 Nov ? 05:02:53 10° ENE 05:04:11 11° E 05:05:28 10° ESE visible
20 Nov ? 06:34:58 10° N 06:38:42 58° WNW 06:42:26 10° SSW visible
20 Nov ? 17:17:38 10° SSE 17:21:22 88° E 17:25:09 10° NNW visible
21 Nov ? 06:21:44 10° N 06:25:33 84° WNW 06:29:22 10° SSW visible
21 Nov ? 17:04:33 10° SSE 17:08:13 61° ENE 17:11:56 10° N visible
21 Nov ? 18:42:07 10° W 18:42:47 10° W 18:43:28 10° WNW visible
22 Nov ? 06:08:34 10° NNE 06:12:23 68° ESE 06:16:11 10° S visible
22 Nov ? 16:51:33 10° SE 16:55:05 42° ENE 16:58:39 10° N visible
22 Nov ? 18:27:18 10° SW 18:29:28 15° W 18:31:39 10° NW visible
23 Nov ? 05:55:29 10° NNE 05:59:11 46° E 06:02:52 10° S visible
23 Nov ? 18:13:21 10° SW 18:16:11 20° W 18:19:03 10° NW visible
24 Nov ? 05:42:29 10° NNE 05:45:57 32° E 05:49:25 10° SSE visible
24 Nov ? 17:59:39 10° SSW 18:02:56 28° W 18:06:14 10° NW visible
25 Nov ? 05:29:35 10° NE 05:32:42 23° E 05:35:48 10° SSE visible
25 Nov ? 17:46:09 10° S 17:49:41 40° W 17:53:15 10° NNW visible
26 Nov ? 05:16:52 10° NE 05:19:25 17° E 05:21:58 10° SE visible
26 Nov ? 17:32:46 10° S 17:36:28 59° W 17:40:11 10° NNW visible
27 Nov ? 05:04:32 10° ENE 05:06:07 12° E 05:07:42 10° ESE visible
27 Nov ? 06:36:52 10° N 06:40:36 55° WNW 06:44:22 10° SSW visible
27 Nov ? 17:19:32 10° SSE 17:23:15 87° WSW 17:27:03 10° NNW visible
28 Nov ? 06:23:37 10° N 06:27:27 79° WNW 06:31:17 10° SSW visible
28 Nov ? 17:06:23 10° SSE 17:10:05 65° ENE 17:13:50 10° N visible
29 Nov ? 06:10:26 10° NNE 06:14:16 72° E 06:18:06 10° S visible
29 Nov ? 16:53:22 10° SE 16:56:56 44° ENE 17:00:33 10° N visible
29 Nov ? 18:29:18 10° SW 18:31:21 14° W 18:33:25 10° WNW visible
